DW5256 Weather Reports


time (UTC)temp
F
wind
direction
speed
knots
gust
knots
rain 1hr
in
rain 24hr
in
rain mn
in
humidity
%
barometer
mb
20260503195023 65 287 2.6 10.4 0.00 0.00 0.00 69 1012.5
20260503193523 65 268 4.3 11.3 0.00 0.00 0.00 68 1012.5
20260503192020 65 238 4.3 12.2 0.00 0.00 0.00 68 1012.6
20260503190518 66 280 3.5 11.3 0.00 0.00 0.00 67 1012.4
20260503185014 67 271 2.6 7.8 0.00 0.00 0.00 65 1012.4
20260503183531 66 279 0.9 7.8 0.00 0.00 0.00 67 1012.4
20260503182029 67 240 0.9 4.3 0.00 0.00 0.00 66 1012.4
20260503180540 67 253 0.0 0.0 0.00 0.00 0.00 67 1012.5
20260503175032 66 258 0.0 5.2 0.00 0.00 0.00 68 1012.5
20260503173529 65 264 0.0 0.0 0.00 0.00 0.00 70 1012.7
20260503172022 64 327 0.0 0.0 0.00 0.00 0.00 72 1012.7
20260503170534 63 360 0.0 0.0 0.00 0.00 0.00 74 1012.7
20260503150527 60 55 0.0 0.0 0.00 0.00 0.00 80 1012.4
20260503130519 58 313 0.0 5.2 0.00 0.00 0.00 84 1011.3
20260503110519 60 299 0.0 6.1 0.00 0.00 0.00 81 1010.7
20260503080517 59 286 0.0 0.0 0.00 0.00 0.00 82 1011.7
20260503072042 59 286 0.0 0.0 0.00 0.00 0.00 82 1012.2
20260503070517 59 286 0.0 0.0 0.00 0.00 0.00 83 1012.1
20260503055048 59 287 0.0 4.3 0.00 0.00 0.00 84 1012.1
20260503053528 59 290 0.0 6.1 0.00 0.00 0.00 83 1012.1
20260503052025 59 267 0.0 7.0 0.00 0.00 0.00 83 1012.1
20260503050527 59 268 0.0 0.0 0.00 0.00 0.00 83 1011.7
20260503045021 59 267 0.0 0.0 0.00 0.00 0.00 83 1011.2
20260503043547 59 272 0.9 7.0 0.00 0.00 0.00 83 1010.9
20260503042042 59 283 6.1 8.7 0.00 0.00 0.00 83 1010.8
20260503040521 60 300 2.6 5.2 0.00 0.00 0.00 82 1010.4
20260503035014 60 296 0.0 3.5 0.00 0.00 0.00 82 1010.1
20260503033531 60 290 0.9 6.1 0.00 0.00 0.00 82 1010.0
20260503032026 60 286 0.0 5.2 0.00 0.00 0.00 81 1009.7
20260503030525 61 325 0.9 7.0 0.00 0.00 0.00 80 1009.7
20260503025021 62 310 0.0 3.5 0.00 0.00 0.00 79 1009.7
20260503023519 62 296 0.0 7.0 0.00 0.00 0.00 78 1009.6
20260503022036 63 316 0.0 8.7 0.00 0.00 0.00 77 1009.6
20260503020516 64 276 0.0 7.0 0.00 0.00 0.00 76 1009.5
20260503015049 65 311 0.9 7.8 0.00 0.00 0.00 75 1009.5
20260503013530 65 273 2.6 7.8 0.00 0.00 0.00 74 1009.4
20260503012022 66 266 4.3 8.7 0.00 0.00 0.00 73 1009.2
20260503010519 67 309 0.0 9.6 0.00 0.00 0.00 72 1009.1
20260503005015 68 300 0.9 8.7 0.00 0.00 0.00 70 1009.2
20260503003531 69 317 1.7 7.8 0.00 0.00 0.00 70 1009.2
20260503002026 70 277 1.7 7.8 0.00 0.00 0.00 68 1009.2
20260503000517 70 290 0.0 7.0 0.00 0.00 0.00 69 1009.2
20260502235052 70 273 4.3 8.7 0.00 0.00 0.00 68 1009.1
20260502233529 71 285 1.7 8.7 0.00 0.00 0.00 68 1009.3
20260502232017 71 306 1.7 8.7 0.00 0.00 0.00 68 1009.4
20260502230515 71 308 2.6 8.7 0.00 0.00 0.00 68 1009.4
20260502225027 72 307 3.5 12.2 0.00 0.00 0.00 67 1009.4
20260502223551 73 311 2.6 9.6 0.00 0.00 0.00 66 1009.5
20260502222050 72 240 5.2 10.4 0.00 0.00 0.00 67 1010.0
20260502220524 73 309 3.5 8.7 0.00 0.00 0.00 66 1010.2
20260502215020 72 277 6.1 11.3 0.00 0.00 0.00 67 1010.3
20260502213545 72 309 0.9 10.4 0.00 0.00 0.00 67 1010.4
20260502212039 72 278 6.1 13.0 0.00 0.00 0.00 67 1010.5
20260502210535 71 300 6.1 11.3 0.00 0.00 0.00 68 1010.7
20260502205031 72 296 3.5 12.2 0.00 0.00 0.00 67 1010.5
20260502203528 73 291 4.3 8.7 0.00 0.00 0.00 66 1010.6
20260502202021 72 307 0.9 7.8 0.00 0.00 0.00 68 1010.5
20260502200516 72 327 0.9 7.0 0.00 0.00 0.00 67 1010.9